Wind_Speed
9 9 8 9 8 8 9 9 9 9 9 10 10 10 10 10 10 10 10 10 11 10 10 10 11 11 12 12 13 13 13 13 13 12 12 12 13 14 14 15 15 15 16
10 9 9 9 9 10 10 10 10 11 11 11 11 11 11 11 10 10 10 10 10 10 11 11 11 12 12 13 13 14 14 14 14 13 13 14 14 15 15 16 16 17 17
11 11 11 11 11 11 11 11 11 12 12 12 12 11 11 11 10 10 10 11 11 12 12 12 12 13 13 14 14 14 14 14 14 14 15 16 15 16 16 17 18 18 18
13 13 13 13 13 13 12 12 12 12 13 13 13 12 12 11 10 11 12 12 12 12 12 13 13 14 14 14 14 15 15 15 15 15 16 17 16 17 17 17 18 19 19
15 15 15 15 15 15 14 14 14 14 14 14 13 13 13 12 11 12 12 13 13 13 13 14 14 14 15 15 15 16 16 17 17 17 17 18 18 18 18 18 19 20 20
18 18 18 18 17 17 17 16 16 16 16 15 15 14 14 13 13 13 13 14 14 14 14 15 15 15 16 16 17 17 17 18 18 18 19 19 19 19 19 19 20 20 21
20 20 20 20 20 19 19 18 17 17 16 16 15 15 14 14 14 14 15 15 15 16 16 16 16 16 17 18 19 19 18 18 19 19 19 20 20 20 20 20 21 22 23
21 22 22 22 21 21 21 21 20 19 18 18 17 17 16 15 15 15 15 15 16 16 17 18 18 18 18 19 19 20 20 19 18 19 20 22 22 22 22 22 22 22 23
23 23 23 23 22 22 21 21 20 20 19 19 19 19 18 17 17 18 18 18 18 18 19 19 19 18 18 18 19 19 19 19 19 20 21 22 23 23 23 23 23 23 24
24 24 24 24 24 23 23 22 22 21 21 21 21 20 20 19 19 20 20 20 20 20 20 20 20 20 20 20 20 19 19 19 20 21 21 22 22 23 24 24 24 25 25
26 26 25 25 25 24 24 24 24 24 23 23 23 23 23 22 22 22 23 22 22 21 21 21 21 21 21 21 21 21 21 21 21 22 22 23 23 24 24 25 25 26 25
28 27 27 26 26 25 25 26 27 26 25 25 25 25 25 25 25 25 25 25 25 24 23 22 22 22 22 22 22 22 22 22 23 23 24 24 25 26 26 26 26 26 26
29 28 28 28 28 27 27 27 26 26 27 27 27 27 28 28 28 27 27 27 26 25 24 24 24 24 24 24 24 24 24 24 25 25 25 26 27 27 27 28 27 27 27
31 30 29 29 29 28 28 28 28 27 27 27 27 27 28 28 28 28 27 26 27 26 26 26 26 27 27 26 26 25 26 26 26 27 27 27 28 28 28 29 29 29 29
32 32 31 31 31 30 30 29 29 29 29 29 29 29 29 29 28 28 29 29 29 30 30 29 28 29 28 28 27 27 27 27 27 27 28 28 29 30 30 30 30 29 29
33 33 32 32 32 31 31 31 31 31 31 31 31 31 31 30 30 30 31 31 32 32 32 32 31 31 31 31 29 29 28 28 28 29 29 30 30 30 30 31 31 30 29
34 34 34 34 33 32 32 32 32 32 32 32 32 32 32 32 32 32 32 32 32 32 33 32 32 32 31 30 30 30 29 29 29 29 30 31 31 31 31 31 32 31 30
34 33 33 33 33 33 33 33 33 33 33 33 33 33 34 34 33 32 32 32 32 32 32 32 31 31 31 31 31 31 31 31 31 31 32 32 33 32 32 32 33 33 32
33 33 33 33 34 34 34 34 34 34 34 34 34 34 34 34 33 32 32 31 31 31 32 32 32 32 33 32 32 32 33 33 34 33 33 34 34 34 34 33 33 33 32
34 34 34 33 34 34 35 35 34 34 33 33 34 33 33 32 31 31 32 33 33 32 32 33 33 34 34 34 34 34 34 34 35 35 35 35 35 34 33 33 33 33 33
35 34 34 34 35 35 35 35 35 35 35 34 34 33 32 32 32 32 33 33 33 33 33 33 34 34 35 35 35 36 35 35 35 35 36 35 35 34 33 33 33 33 33
36 35 34 34 34 35 35 35 36 36 36 36 35 34 34 34 34 34 34 34 34 34 35 35 35 35 35 35 36 36 36 35 36 36 36 35 34 34 33 33 33 34 34
36 36 35 35 36 36 36 35 36 36 37 36 35 36 36 36 36 36 35 35 34 34 34 35 35 35 36 36 36 36 35 36 36 36 35 33 33 33 34 33 34 34 34
35 35 35 35 35 35 35 35 35 36 36 36 36 37 37 37 37 37 36 35 35 34 34 34 34 35 35 36 36 36 36 36 35 35 34 34 33 33 33 34 34 34 34
34 34 34 34 34 35 35 35 35 35 36 36 36 36 37 37 37 36 35 35 35 35 35 35 35 35 35 35 36 36 36 36 35 35 34 34 33 33 33 33 33 33 33
31 32 32 33 33 33 33 33 33 34 34 35 35 35 35 35 34 34 34 34 35 35 36 36 36 36 35 35 35 36 36 35 35 34 34 33 33 33 33 33 33 33 34
Wind_Direction
312 308 302 304 299 298 301 298 298 296 291 288 288 291 292 294 294 292 292 290 287 287 289 292 295 295 295 294 291 291 292 293 292 293 294 295 298 300 300 301 301 301 301
306 302 298 297 297 296 294 296 298 297 293 292 291 292 291 289 290 292 292 290 289 289 288 289 294 295 295 293 291 289 289 292 291 292 293 294 295 298 299 300 299 298 300
301 296 294 295 295 293 291 292 295 295 293 292 292 291 291 288 289 291 292 292 291 290 289 288 292 294 295 295 293 291 290 291 290 290 293 296 296 297 298 300 300 297 296
295 295 293 292 292 290 288 287 288 289 290 290 288 287 286 286 286 287 292 295 295 293 292 293 293 294 296 295 293 291 290 289 288 289 291 294 295 296 297 299 300 299 298
291 291 290 291 290 287 286 286 285 287 288 290 286 285 284 285 284 286 289 295 295 295 294 297 296 294 295 295 293 292 290 289 288 287 289 292 294 295 296 297 299 299 298
290 287 286 288 288 287 285 284 284 285 286 286 284 282 284 283 284 288 291 292 294 296 297 299 300 296 294 295 294 292 290 288 286 285 288 290 291 293 296 297 299 298 299
290 288 285 284 284 283 282 280 280 280 279 279 280 280 282 282 283 284 288 290 292 294 296 298 299 299 297 293 291 291 290 288 285 284 286 289 290 291 294 297 298 298 300
287 288 286 283 280 280 278 277 276 275 276 274 276 275 278 282 284 285 288 292 294 294 295 296 298 300 297 294 292 291 291 290 287 283 284 287 290 291 292 296 297 297 298
282 284 286 284 282 280 278 275 273 271 272 274 274 271 272 275 280 282 283 286 289 291 293 295 298 300 299 297 295 293 293 291 290 288 288 289 290 291 293 296 297 298 298
278 279 282 282 281 280 279 277 275 272 270 272 272 271 273 275 277 281 283 284 286 287 289 292 293 294 295 296 296 295 294 294 293 294 294 294 293 294 294 295 296 297 298
273 274 276 278 279 278 277 276 275 272 270 270 270 271 272 275 276 277 279 280 284 285 286 287 288 290 293 292 293 294 294 293 294 295 295 296 295 295 295 294 295 297 297
269 270 273 275 275 275 275 276 275 273 271 271 271 273 275 276 275 276 276 277 279 281 284 286 288 289 290 291 292 292 292 295 296 295 295 297 297 296 295 294 294 296 296
269 269 270 272 272 272 273 275 275 273 271 272 273 272 274 275 274 275 276 276 277 279 282 284 286 287 289 289 289 290 293 294 295 295 296 296 296 295 293 293 294 296 295
267 268 269 271 271 272 273 274 276 276 275 275 275 276 276 277 276 276 278 279 279 280 281 282 283 285 285 286 286 289 292 293 293 293 293 294 295 295 295 294 293 294 294
265 266 268 270 271 272 272 273 274 275 275 276 276 277 277 279 279 279 279 280 280 279 279 281 282 284 285 287 286 286 289 291 291 292 293 294 295 294 294 295 294 294 295
265 266 268 269 270 271 271 272 273 274 275 276 276 278 279 278 279 279 279 279 279 279 279 280 281 283 284 286 287 287 288 289 291 291 292 294 295 294 294 293 292 293 295
265 266 268 268 269 269 270 271 271 272 275 276 276 277 278 278 279 279 279 278 279 280 280 280 280 281 283 285 287 287 286 287 289 290 291 293 294 293 293 292 292 292 292
266 267 269 270 270 270 270 271 272 273 274 275 276 278 279 279 279 278 277 278 279 279 278 279 280 280 282 284 284 284 285 286 287 289 290 291 291 290 291 292 292 291 292
264 266 268 270 270 271 271 272 272 272 274 276 277 278 279 279 278 277 277 278 279 279 278 277 278 278 279 281 282 284 285 286 287 287 288 288 288 288 289 290 292 291 290
264 265 268 269 270 271 272 273 273 274 276 277 278 278 278 277 278 279 280 280 279 279 279 278 278 278 278 279 281 283 284 285 286 286 287 287 287 287 287 288 289 289 289
264 266 267 268 269 270 270 271 273 273 275 277 278 277 277 278 279 280 280 280 280 279 279 279 279 279 279 278 279 281 283 284 285 286 286 286 286 286 286 286 287 288 288
264 265 266 267 268 269 269 271 272 273 274 275 276 276 277 277 277 278 279 280 280 279 279 280 280 279 280 281 281 282 283 284 285 286 287 285 285 285 286 286 287 287 287
263 265 266 267 268 268 268 269 271 273 274 274 276 276 275 275 275 276 278 279 279 280 280 281 281 280 280 280 280 281 283 285 286 286 285 284 284 285 286 286 287 287 288
264 265 266 266 266 267 268 269 270 272 274 274 275 275 274 273 274 275 276 278 279 280 281 281 282 282 281 279 279 280 282 284 285 284 284 284 285 286 286 287 288 287 286
264 264 264 264 265 267 268 269 270 271 273 274 274 274 274 275 275 276 276 277 277 279 281 282 282 283 283 282 281 281 282 283 283 284 284 284 284 285 286 287 287 287 287
266 265 265 265 266 266 267 269 271 272 274 274 275 275 275 275 276 278 278 278 279 279 280 281 282 283 284 283 283 283 283 282 282 282 283 283 284 284 285 285 287 287 287
Height
5895 5894 5893 5891 5890 5889 5888 5887 5886 5885 5885 5884 5883 5882 5881 5880 5879 5878 5877 5876 5876 5875 5874 5874 5873 5872 5871 5870 5869 5868 5867 5866 5865 5864 5863 5862 5861 5859 5858 5856 5854 5853 5851
5893 5892 5891 5890 5889 5888 5887 5886 5885 5884 5883 5882 5881 5880 5879 5878 5877 5876 5875 5874 5873 5872 5871 5871 5870 5869 5868 5867 5866 5865 5864 5862 5861 5860 5859 5858 5857 5856 5854 5852 5851 5849 5847
5891 5890 5889 5888 5887 5886 5884 5883 5882 5881 5880 5879 5878 5877 5876 5875 5874 5873 5872 5871 5870 5869 5869 5868 5867 5866 5865 5863 5862 5861 5860 5859 5858 5857 5856 5854 5853 5852 5850 5848 5846 5844 5843
5889 5888 5886 5885 5884 5883 5882 5881 5880 5878 5877 5876 5875 5874 5873 5872 5871 5870 5869 5868 5867 5866 5865 5864 5863 5862 5861 5860 5858 5857 5856 5855 5854 5853 5851 5850 5849 5847 5845 5844 5842 5840 5838
5886 5885 5883 5882 5881 5880 5879 5877 5876 5875 5874 5873 5872 5871 5869 5869 5868 5867 5866 5865 5864 5863 5862 5861 5859 5858 5857 5856 5854 5853 5852 5851 5849 5848 5846 5845 5844 5842 5841 5839 5837 5835 5832
5882 5881 5880 5878 5877 5876 5875 5874 5873 5872 5870 5869 5868 5867 5866 5865 5864 5863 5862 5861 5860 5859 5858 5857 5856 5854 5853 5852 5850 5848 5847 5846 5845 5844 5842 5841 5839 5838 5836 5834 5832 5830 5827
5877 5876 5875 5873 5872 5871 5870 5869 5868 5867 5866 5865 5864 5863 5862 5861 5861 5860 5859 5858 5857 5855 5854 5853 5851 5850 5848 5847 5845 5843 5842 5840 5839 5838 5837 5836 5834 5832 5831 5829 5826 5824 5822
5872 5871 5869 5868 5867 5866 5865 5864 5863 5862 5861 5861 5860 5859 5858 5857 5857 5856 5855 5854 5852 5851 5850 5848 5847 5845 5843 5841 5839 5838 5836 5835 5833 5832 5831 5830 5828 5827 5825 5823 5820 5818 5816
5866 5865 5864 5863 5862 5860 5860 5858 5857 5856 5856 5855 5854 5854 5853 5853 5852 5851 5850 5848 5847 5846 5845 5843 5842 5840 5838 5836 5834 5832 5830 5829 5827 5826 5825 5823 5822 5820 5818 5817 5814 5812 5810
5860 5859 5858 5857 5856 5855 5854 5853 5852 5851 5850 5850 5849 5848 5848 5848 5847 5846 5844 5843 5842 5841 5839 5838 5836 5835 5833 5830 5829 5827 5825 5823 5821 5820 5818 5817 5815 5813 5811 5810 5808 5805 5803
5853 5852 5851 5850 5849 5848 5848 5847 5846 5845 5844 5844 5843 5842 5842 5841 5841 5840 5838 5837 5836 5835 5833 5832 5831 5829 5827 5824 5823 5821 5819 5817 5815 5814 5812 5810 5808 5806 5804 5803 5800 5798 5796
5845 5844 5844 5843 5842 5842 5841 5840 5839 5838 5837 5837 5836 5835 5835 5834 5833 5832 5831 5831 5829 5828 5827 5826 5824 5823 5821 5818 5816 5815 5813 5811 5809 5807 5805 5803 5801 5799 5797 5795 5793 5791 5789
5837 5836 5836 5835 5834 5834 5833 5832 5831 5830 5829 5829 5828 5828 5827 5826 5825 5824 5823 5823 5822 5821 5820 5819 5817 5816 5814 5812 5810 5808 5806 5804 5802 5800 5798 5796 5794 5792 5790 5787 5785 5783 5781
5828 5828 5827 5827 5826 5826 5825 5824 5824 5823 5822 5821 5820 5820 5819 5818 5817 5816 5815 5814 5814 5813 5812 5811 5810 5808 5806 5804 5803 5801 5799 5797 5795 5792 5790 5788 5786 5784 5782 5779 5777 5775 5773
5818 5818 5818 5818 5818 5817 5817 5816 5816 5815 5814 5814 5813 5812 5811 5810 5809 5808 5807 5807 5805 5805 5803 5802 5801 5799 5797 5796 5794 5792 5790 5788 5786 5784 5782 5780 5778 5776 5774 5771 5769 5766 5764
5808 5809 5808 5808 5808 5808 5807 5807 5807 5806 5806 5805 5804 5803 5802 5801 5800 5799 5798 5797 5796 5795 5794 5793 5792 5790 5789 5787 5785 5783 5782 5780 5778 5775 5773 5771 5769 5767 5765 5763 5760 5758 5756
5798 5798 5798 5798 5797 5797 5797 5797 5797 5797 5796 5795 5794 5793 5793 5792 5790 5789 5788 5787 5786 5785 5784 5783 5782 5781 5780 5778 5776 5774 5773 5771 5769 5767 5765 5763 5761 5758 5756 5754 5752 5749 5747
5788 5788 5788 5787 5787 5787 5787 5786 5786 5786 5786 5785 5784 5783 5782 5781 5780 5779 5778 5777 5776 5775 5774 5773 5772 5771 5770 5768 5767 5765 5763 5761 5760 5758 5756 5753 5751 5749 5747 5745 5742 5740 5738
5778 5778 5778 5778 5778 5777 5777 5776 5776 5775 5775 5774 5773 5773 5771 5770 5769 5768 5767 5766 5765 5764 5763 5762 5761 5761 5759 5758 5757 5755 5754 5752 5750 5748 5746 5744 5742 5739 5737 5735 5733 5731 5728
5767 5768 5768 5767 5767 5767 5766 5766 5765 5765 5764 5764 5763 5762 5760 5759 5758 5757 5756 5755 5754 5754 5753 5752 5751 5750 5749 5748 5746 5745 5743 5742 5740 5738 5736 5734 5731 5729 5727 5725 5723 5721 5719
5756 5757 5756 5757 5757 5756 5756 5756 5755 5755 5754 5753 5752 5751 5750 5749 5748 5747 5746 5745 5744 5743 5742 5741 5740 5739 5738 5736 5735 5734 5732 5731 5729 5727 5725 5723 5721 5718 5717 5715 5713 5711 5709
5746 5746 5746 5746 5746 5746 5745 5745 5744 5743 5743 5742 5741 5740 5739 5738 5737 5737 5736 5734 5733 5732 5731 5730 5729 5728 5727 5725 5724 5723 5722 5720 5718 5716 5714 5712 5710 5708 5706 5704 5702 5701 5698
5735 5735 5735 5735 5734 5734 5734 5733 5733 5732 5731 5730 5729 5728 5727 5726 5726 5725 5724 5723 5722 5721 5720 5719 5718 5717 5716 5714 5713 5712 5711 5709 5707 5705 5703 5702 5700 5698 5696 5694 5692 5690 5688
5723 5723 5723 5723 5722 5722 5722 5721 5721 5720 5719 5718 5717 5717 5716 5715 5714 5713 5713 5712 5711 5710 5709 5708 5707 5705 5704 5703 5702 5701 5700 5698 5696 5694 5692 5691 5689 5687 5685 5683 5682 5680 5678
5712 5712 5711 5711 5711 5711 5710 5710 5709 5708 5708 5707 5706 5705 5704 5703 5702 5702 5701 5700 5700 5699 5698 5697 5696 5694 5693 5692 5691 5690 5689 5687 5685 5683 5681 5680 5678 5677 5675 5673 5671 5670 5667
5701 5701 5701 5700 5700 5699 5699 5699 5698 5697 5697 5696 5695 5694 5693 5692 5691 5690 5690 5689 5688 5688 5687 5686 5684 5683 5682 5680 5679 5678 5677 5675 5674 5672 5670 5669 5667 5666 5664 5662 5661 5659 5657